This demonstration page uses our WeatherBlox Daily Observations layout. Learn more.

Left ArrowRight Arrow

47.50024, -111.30081

Hourly Observations for May 7, 2022

Temp ( °F °C ) Dew Point ( °F °C ) Humidity (%) Winds ( mph kmh ) Pressure ( in mb ) Visibility ( mi km ) Precip ( " mm )
12:53 am 00:53 Cloudy 49 9.4 40 4.4 71 71 S 18 30 29.48 998 10 16 0.00 0.00
1:53 am 01:53 Cloudy 48 8.9 40 4.4 74 74 W 12 19 29.47 998 10 16 0.00 0.00
2:53 am 02:53 Partly Cloudy 45 7.2 38 3.3 77 77 SW 12 19 29.45 997 10 16 0.00 0.00
3:53 am 03:53 Cloudy 45 7.2 38 3.3 77 77 SW 13 20 29.45 997 10 16 0.00 0.00
4:53 am 04:53 Mostly Clear 43 6.1 36 2.2 76 76 SW 15 24 29.44 997 10 16 0.00 0.00
5:53 am 05:53 Clear 42 5.6 36 2.2 79 79 SSW 8 13 29.45 997 10 16 0.00 0.00
6:53 am 06:53 Sunny 43 6.1 37 2.8 80 80 SW 12 19 29.48 998 10 16 0.00 0.00
7:53 am 07:53 Sunny 46 7.8 35 1.7 66 66 SW 15 24 29.49 999 10 16 0.00 0.00
8:53 am 08:53 Mostly Cloudy 47 8.3 34 1.1 61 61 SW 16 26 29.51 999 10 16 0.00 0.00
9:53 am 09:53 Cloudy 49 9.4 31 -0.6 50 50 SW 22 35 29.53 1000 10 16 0.00 0.00
10:53 am 10:53 Cloudy 48 8.9 31 -0.6 52 52 SW 22 35 29.54 1000 10 16 0.00 0.00
11:53 am 11:53 Sunny 58 14.4 29 -1.7 33 33 WSW 25 41 29.50 999 10 16 0.00 0.00
12:53 pm 12:53 Mostly Sunny 56 13.3 29 -1.7 36 36 WSW 30 48 29.50 999 10 16 0.00 0.00
1:53 pm 13:53 Mostly Sunny 58 14.4 26 -3.3 29 29 WSW 22 35 29.49 999 10 16 0.00 0.00
2:53 pm 14:53 Mostly Cloudy 57 13.9 26 -3.3 30 30 WSW 18 30 29.52 1000 10 16 0.00 0.00
3:53 pm 15:53 Mostly Sunny 54 12.2 27 -2.8 35 35 SW 26 43 29.52 1000 10 16 0.00 0.00
4:53 pm 16:53 Sunny 56 13.3 25 -3.9 30 30 WSW 26 43 29.53 1000 10 16 0.00 0.00
5:53 pm 17:53 Sunny 55 12.8 26 -3.3 33 33 WSW 21 33 29.55 1001 10 16 0.00 0.00
6:53 pm 18:53 Mostly Sunny 53 11.7 27 -2.8 37 37 W 24 39 29.56 1001 10 16 0.00 0.00
7:53 pm 19:53 Sunny 50 10 28 -2.2 43 43 W 18 30 29.57 1001 10 16 0.00 0.00
8:53 pm 20:53 Clear 46 7.8 28 -2.2 50 50 W 15 24 29.58 1002 10 16 0.00 0.00
9:53 pm 21:53 Clear 40 4.4 29 -1.7 65 65 WSW 10 17 29.60 1002 10 16 0.00 0.00
10:53 pm 22:53 Clear 38 3.3 30 -1.1 73 73 SSW 10 17 29.60 1002 10 16 0.00 0.00
11:53 pm 23:53 Clear 43 6.1 28 -2.2 56 56 SW 15 24 29.56 1001 10 16 0.00 0.00

Powered by AerisWeather